| time (UTC) | temp F | wind direction | speed MPH | gust MPH | rain 1hr in | rain 24hr in | rain mn in | humidity % | barometer mb |
| 20260504031505 | 44 | 0 | 0.0 | 0.0 | 0.00 | 0.00 | 0.00 | 75 | 1015.2 |
| 20260504031004 | 44 | 0 | 0.0 | 0.0 | 0.00 | 0.00 | 0.00 | 75 | 1015.1 |
| 20260504030526 | 45 | 0 | 0.0 | 0.0 | 0.00 | 0.00 | 0.00 | 74 | 1015.2 |
| 20260504030026 | 45 | 0 | 0.0 | 0.0 | 0.00 | 0.00 | 0.00 | 73 | 1015.2 |
| 20260504025526 | 45 | 0 | 0.0 | 0.0 | 0.00 | 0.00 | 0.00 | 72 | 1015.2 |
| 20260504025005 | 45 | 0 | 0.0 | 0.0 | 0.00 | 0.00 | 0.00 | 72 | 1015.3 |
| 20260504024504 | 45 | 0 | 0.0 | 0.0 | 0.00 | 0.00 | 0.00 | 72 | 1015.2 |
| 20260504024025 | 46 | 0 | 0.0 | 0.0 | 0.00 | 0.00 | 0.00 | 70 | 1015.2 |
| 20260504023505 | 46 | 0 | 0.0 | 0.0 | 0.00 | 0.00 | 0.00 | 70 | 1015.2 |
| 20260504023026 | 46 | 0 | 0.0 | 0.0 | 0.00 | 0.00 | 0.00 | 69 | 1015.2 |
| 20260504022504 | 46 | 0 | 0.0 | 0.0 | 0.00 | 0.00 | 0.00 | 68 | 1015.2 |
| 20260504022005 | 47 | 0 | 0.0 | 0.0 | 0.00 | 0.00 | 0.00 | 68 | 1015.2 |
| 20260504021505 | 47 | 0 | 0.0 | 0.0 | 0.00 | 0.00 | 0.00 | 67 | 1015.2 |
| 20260504021025 | 47 | 0 | 0.0 | 0.0 | 0.00 | 0.00 | 0.00 | 65 | 1015.1 |
| 20260504020505 | 48 | 0 | 0.0 | 0.0 | 0.00 | 0.00 | 0.00 | 65 | 1015.1 |
| 20260504015505 | 48 | 0 | 0.0 | 0.0 | 0.00 | 0.00 | 0.00 | 64 | 1015.1 |
| 20260504015005 | 49 | 0 | 0.0 | 0.0 | 0.00 | 0.00 | 0.00 | 62 | 1015.0 |
| 20260504014506 | 49 | 0 | 0.0 | 0.0 | 0.00 | 0.00 | 0.00 | 61 | 1015.1 |
| 20260504014004 | 49 | 0 | 0.0 | 0.0 | 0.00 | 0.00 | 0.00 | 60 | 1015.1 |
| 20260504013504 | 50 | 0 | 0.0 | 0.0 | 0.00 | 0.00 | 0.00 | 59 | 1015.0 |
| 20260504013004 | 50 | 0 | 0.0 | 0.0 | 0.00 | 0.00 | 0.00 | 58 | 1014.9 |
| 20260504012504 | 50 | 0 | 0.0 | 0.0 | 0.00 | 0.00 | 0.00 | 57 | 1014.9 |
| 20260504012005 | 51 | 0 | 0.0 | 0.0 | 0.00 | 0.00 | 0.00 | 56 | 1014.9 |
| 20260504011506 | 51 | 0 | 0.0 | 0.0 | 0.00 | 0.00 | 0.00 | 55 | 1014.8 |
| 20260504011026 | 52 | 0 | 0.0 | 0.0 | 0.00 | 0.00 | 0.00 | 53 | 1014.8 |
| 20260504010525 | 52 | 0 | 0.0 | 0.0 | 0.00 | 0.00 | 0.00 | 53 | 1014.8 |
| 20260504010026 | 53 | 0 | 0.0 | 0.0 | 0.00 | 0.00 | 0.00 | 51 | 1014.8 |
| 20260504005526 | 54 | 0 | 0.0 | 0.0 | 0.00 | 0.00 | 0.00 | 48 | 1014.8 |
| 20260504005005 | 54 | 0 | 0.0 | 0.0 | 0.00 | 0.00 | 0.00 | 48 | 1014.7 |
| 20260504004525 | 55 | 0 | 0.0 | 0.0 | 0.00 | 0.00 | 0.00 | 47 | 1014.7 |
| 20260504004025 | 55 | 0 | 0.0 | 0.0 | 0.00 | 0.00 | 0.00 | 45 | 1014.6 |
| 20260504003505 | 56 | 0 | 0.0 | 0.0 | 0.00 | 0.00 | 0.00 | 44 | 1014.6 |
| 20260504003026 | 56 | 0 | 0.0 | 0.0 | 0.00 | 0.00 | 0.00 | 43 | 1014.5 |
| 20260504002505 | 56 | 236 | 0.0 | 1.0 | 0.00 | 0.00 | 0.00 | 44 | 1014.4 |
| 20260504002004 | 57 | 236 | 0.0 | 1.0 | 0.00 | 0.00 | 0.00 | 43 | 1014.4 |
| 20260504001527 | 58 | 236 | 0.0 | 1.0 | 0.00 | 0.00 | 0.00 | 40 | 1014.3 |
| 20260504001025 | 58 | 236 | 0.0 | 1.0 | 0.00 | 0.00 | 0.00 | 39 | 1014.3 |
| 20260504000504 | 59 | 230 | 0.0 | 3.0 | 0.00 | 0.00 | 0.00 | 38 | 1014.2 |
| 20260504000026 | 59 | 229 | 0.0 | 3.0 | 0.00 | 0.00 | 0.00 | 36 | 1014.1 |
| 20260503235525 | 60 | 206 | 0.0 | 1.0 | 0.00 | 0.00 | 0.00 | 36 | 1014.1 |
| 20260503235005 | 60 | 205 | 0.0 | 3.0 | 0.00 | 0.00 | 0.00 | 35 | 1014.2 |
| 20260503234525 | 60 | 208 | 1.0 | 3.0 | 0.00 | 0.00 | 0.00 | 35 | 1014.1 |
| 20260503234026 | 61 | 212 | 1.0 | 3.0 | 0.00 | 0.00 | 0.00 | 33 | 1014.0 |
| 20260503233525 | 61 | 211 | 1.0 | 5.0 | 0.00 | 0.00 | 0.00 | 33 | 1013.9 |
| 20260503233004 | 61 | 215 | 1.0 | 5.0 | 0.00 | 0.00 | 0.00 | 32 | 1013.9 |
| 20260503232526 | 62 | 228 | 1.0 | 5.0 | 0.00 | 0.00 | 0.00 | 32 | 1013.8 |
| 20260503232025 | 62 | 247 | 3.0 | 7.0 | 0.00 | 0.00 | 0.00 | 31 | 1013.8 |
| 20260503231505 | 62 | 244 | 3.0 | 8.0 | 0.00 | 0.00 | 0.00 | 31 | 1013.8 |
| 20260503231004 | 63 | 234 | 2.0 | 6.0 | 0.00 | 0.00 | 0.00 | 31 | 1013.9 |
| 20260503230505 | 63 | 271 | 2.0 | 4.0 | 0.00 | 0.00 | 0.00 | 31 | 1013.8 |
| 20260503230025 | 63 | 265 | 3.0 | 8.0 | 0.00 | 0.00 | 0.00 | 31 | 1013.8 |
| 20260503225505 | 63 | 240 | 3.0 | 8.0 | 0.00 | 0.00 | 0.00 | 31 | 1013.9 |
| 20260503225004 | 63 | 248 | 3.0 | 8.0 | 0.00 | 0.00 | 0.00 | 31 | 1013.9 |
| 20260503224525 | 63 | 257 | 3.0 | 9.0 | 0.00 | 0.00 | 0.00 | 30 | 1013.9 |
| 20260503224005 | 63 | 266 | 2.0 | 9.0 | 0.00 | 0.00 | 0.00 | 30 | 1013.9 |
| 20260503223525 | 63 | 309 | 2.0 | 5.0 | 0.00 | 0.00 | 0.00 | 30 | 1013.9 |
| 20260503223005 | 63 | 319 | 2.0 | 5.0 | 0.00 | 0.00 | 0.00 | 30 | 1013.9 |
| 20260503222525 | 63 | 303 | 3.0 | 13.0 | 0.00 | 0.00 | 0.00 | 30 | 1013.8 |
| 20260503222004 | 63 | 265 | 3.0 | 14.0 | 0.00 | 0.00 | 0.00 | 30 | 1013.9 |
| 20260503221525 | 63 | 239 | 4.0 | 15.0 | 0.00 | 0.00 | 0.00 | 31 | 1013.8 |
| 20260503221005 | 63 | 267 | 4.0 | 15.0 | 0.00 | 0.00 | 0.00 | 30 | 1013.9 |
| 20260503220504 | 63 | 283 | 4.0 | 12.0 | 0.00 | 0.00 | 0.00 | 29 | 1014.0 |
| 20260503220025 | 63 | 261 | 4.0 | 13.0 | 0.00 | 0.00 | 0.00 | 31 | 1014.0 |
| 20260503215526 | 63 | 259 | 5.0 | 13.0 | 0.00 | 0.00 | 0.00 | 29 | 1014.0 |
| 20260503215025 | 63 | 258 | 5.0 | 11.0 | 0.00 | 0.00 | 0.00 | 29 | 1014.0 |
| 20260503214526 | 63 | 235 | 4.0 | 15.0 | 0.00 | 0.00 | 0.00 | 30 | 1013.8 |
| 20260503214005 | 64 | 235 | 4.0 | 15.0 | 0.00 | 0.00 | 0.00 | 29 | 1013.9 |
| 20260503213504 | 63 | 249 | 3.0 | 13.0 | 0.00 | 0.00 | 0.00 | 30 | 1014.0 |
| 20260503213004 | 63 | 275 | 3.0 | 10.0 | 0.00 | 0.00 | 0.00 | 30 | 1013.8 |
| 20260503212525 | 63 | 265 | 5.0 | 15.0 | 0.00 | 0.00 | 0.00 | 30 | 1013.9 |
| 20260503212005 | 63 | 256 | 5.0 | 15.0 | 0.00 | 0.00 | 0.00 | 30 | 1013.9 |
| 20260503211525 | 63 | 225 | 5.0 | 15.0 | 0.00 | 0.00 | 0.00 | 31 | 1013.9 |
| 20260503211005 | 63 | 255 | 6.0 | 15.0 | 0.00 | 0.00 | 0.00 | 30 | 1013.9 |
| 20260503210525 | 63 | 291 | 6.0 | 14.0 | 0.00 | 0.00 | 0.00 | 30 | 1013.9 |
| 20260503210005 | 63 | 301 | 5.0 | 14.0 | 0.00 | 0.00 | 0.00 | 30 | 1013.8 |
| 20260503205505 | 63 | 299 | 3.0 | 11.0 | 0.00 | 0.00 | 0.00 | 31 | 1013.9 |
| 20260503205005 | 63 | 277 | 4.0 | 13.0 | 0.00 | 0.00 | 0.00 | 34 | 1013.9 |
| 20260503204526 | 62 | 294 | 5.0 | 13.0 | 0.00 | 0.00 | 0.00 | 32 | 1014.0 |
| 20260503204025 | 63 | 304 | 4.0 | 13.0 | 0.00 | 0.00 | 0.00 | 33 | 1014.0 |
| 20260503203505 | 62 | 295 | 5.0 | 16.0 | 0.00 | 0.00 | 0.00 | 32 | 1014.1 |
| 20260503203026 | 62 | 293 | 5.0 | 16.0 | 0.00 | 0.00 | 0.00 | 31 | 1014.2 |
| 20260503202504 | 62 | 260 | 5.0 | 18.0 | 0.00 | 0.00 | 0.00 | 34 | 1014.2 |
| 20260503202025 | 62 | 258 | 5.0 | 18.0 | 0.00 | 0.00 | 0.00 | 33 | 1014.2 |
| 20260503201525 | 62 | 268 | 5.0 | 13.0 | 0.00 | 0.00 | 0.00 | 32 | 1014.2 |
| 20260503201026 | 62 | 302 | 4.0 | 10.0 | 0.00 | 0.00 | 0.00 | 34 | 1014.3 |
| 20260503200504 | 62 | 262 | 6.0 | 17.0 | 0.00 | 0.00 | 0.00 | 33 | 1014.4 |
| 20260503200004 | 62 | 247 | 7.0 | 17.0 | 0.00 | 0.00 | 0.00 | 33 | 1014.5 |
| 20260503195504 | 63 | 257 | 6.0 | 16.0 | 0.00 | 0.00 | 0.00 | 32 | 1014.6 |
| 20260503195005 | 63 | 259 | 4.0 | 13.0 | 0.00 | 0.00 | 0.00 | 32 | 1014.6 |
| 20260503194525 | 63 | 303 | 4.0 | 14.0 | 0.00 | 0.00 | 0.00 | 35 | 1014.6 |
| 20260503194004 | 62 | 311 | 5.0 | 14.0 | 0.00 | 0.00 | 0.00 | 33 | 1014.7 |
| 20260503193525 | 62 | 284 | 4.0 | 12.0 | 0.00 | 0.00 | 0.00 | 34 | 1014.8 |
| 20260503193004 | 61 | 253 | 4.0 | 14.0 | 0.00 | 0.00 | 0.00 | 35 | 1014.8 |
| 20260503192525 | 61 | 273 | 6.0 | 15.0 | 0.00 | 0.00 | 0.00 | 34 | 1014.9 |
| 20260503192004 | 61 | 291 | 6.0 | 15.0 | 0.00 | 0.00 | 0.00 | 34 | 1015.0 |
| 20260503191526 | 61 | 305 | 5.0 | 16.0 | 0.00 | 0.00 | 0.00 | 33 | 1015.1 |
| 20260503191026 | 61 | 312 | 5.0 | 16.0 | 0.00 | 0.00 | 0.00 | 33 | 1015.1 |
| 20260503190525 | 60 | 284 | 6.0 | 18.0 | 0.00 | 0.00 | 0.00 | 35 | 1015.2 |
| 20260503190026 | 60 | 261 | 7.0 | 18.0 | 0.00 | 0.00 | 0.00 | 34 | 1015.3 |
| 20260503185504 | 61 | 257 | 5.0 | 18.0 | 0.00 | 0.00 | 0.00 | 33 | 1015.3 |
| 20260503185005 | 61 | 258 | 4.0 | 12.0 | 0.00 | 0.00 | 0.00 | 35 | 1015.2 |
| 20260503184505 | 60 | 266 | 5.0 | 15.0 | 0.00 | 0.00 | 0.00 | 35 | 1015.4 |
| 20260503184005 | 60 | 308 | 5.0 | 15.0 | 0.00 | 0.00 | 0.00 | 34 | 1015.5 |
| 20260503183505 | 61 | 299 | 4.0 | 12.0 | 0.00 | 0.00 | 0.00 | 33 | 1015.6 |
| 20260503183005 | 60 | 298 | 5.0 | 11.0 | 0.00 | 0.00 | 0.00 | 37 | 1015.6 |
| 20260503182525 | 60 | 306 | 6.0 | 13.0 | 0.00 | 0.00 | 0.00 | 35 | 1015.8 |
| 20260503182025 | 60 | 289 | 6.0 | 16.0 | 0.00 | 0.00 | 0.00 | 35 | 1015.8 |
| 20260503181527 | 60 | 272 | 7.0 | 16.0 | 0.00 | 0.00 | 0.00 | 34 | 1015.5 |
| 20260503181004 | 61 | 277 | 4.0 | 17.0 | 0.00 | 0.00 | 0.00 | 34 | 1015.5 |
| 20260503180504 | 61 | 274 | 4.0 | 21.0 | 0.00 | 0.00 | 0.00 | 34 | 1015.6 |
| 20260503180025 | 60 | 283 | 5.0 | 21.0 | 0.00 | 0.00 | 0.00 | 36 | 1015.8 |
| 20260503175505 | 60 | 312 | 5.0 | 18.0 | 0.00 | 0.00 | 0.00 | 35 | 1015.7 |
| 20260503175004 | 60 | 332 | 5.0 | 18.0 | 0.00 | 0.00 | 0.00 | 34 | 1015.9 |
| 20260503174504 | 60 | 323 | 5.0 | 16.0 | 0.00 | 0.00 | 0.00 | 35 | 1015.8 |
| 20260503174025 | 60 | 282 | 5.0 | 16.0 | 0.00 | 0.00 | 0.00 | 34 | 1015.8 |
| 20260503173504 | 60 | 286 | 5.0 | 13.0 | 0.00 | 0.00 | 0.00 | 35 | 1015.7 |
| 20260503173027 | 59 | 307 | 6.0 | 16.0 | 0.00 | 0.00 | 0.00 | 35 | 1015.7 |
| 20260503172525 | 59 | 303 | 5.0 | 16.0 | 0.00 | 0.00 | 0.00 | 34 | 1015.8 |
| 20260503172005 | 59 | 301 | 4.0 | 13.0 | 0.00 | 0.00 | 0.00 | 35 | 1015.9 |
| 20260503171504 | 58 | 317 | 4.0 | 19.0 | 0.00 | 0.00 | 0.00 | 36 | 1015.9 |
| 20260503171027 | 58 | 311 | 5.0 | 19.0 | 0.00 | 0.00 | 0.00 | 35 | 1015.9 |
| 20260503170504 | 58 | 287 | 5.0 | 17.0 | 0.00 | 0.00 | 0.00 | 35 | 1016.2 |
| 20260503150525 | 55 | 320 | 4.0 | 11.0 | 0.00 | 0.00 | 0.00 | 37 | 1016.6 |
| 20260503131025 | 49 | 311 | 5.0 | 14.0 | 0.00 | 0.00 | 0.00 | 52 | 1016.9 |
| 20260503130525 | 49 | 301 | 4.0 | 14.0 | 0.00 | 0.00 | 0.00 | 52 | 1016.8 |
| 20260503110504 | 42 | 275 | 3.0 | 10.0 | 0.00 | 0.00 | 0.00 | 70 | 1015.7 |
| 20260503081525 | 42 | 248 | 2.0 | 4.0 | 0.00 | 0.00 | 0.00 | 75 | 1014.0 |
| 20260503081005 | 42 | 242 | 2.0 | 6.0 | 0.00 | 0.00 | 0.00 | 74 | 1014.0 |
| 20260503080525 | 42 | 249 | 1.0 | 6.0 | 0.00 | 0.00 | 0.00 | 74 | 1014.0 |
| 20260503072504 | 42 | 268 | 2.0 | 6.0 | 0.00 | 0.00 | 0.00 | 74 | 1013.6 |
| 20260503072025 | 42 | 261 | 2.0 | 5.0 | 0.00 | 0.00 | 0.00 | 74 | 1013.6 |
| 20260503071504 | 42 | 253 | 2.0 | 5.0 | 0.00 | 0.00 | 0.00 | 74 | 1013.5 |
| 20260503071025 | 42 | 249 | 2.0 | 5.0 | 0.00 | 0.00 | 0.00 | 74 | 1013.5 |
| 20260503070504 | 42 | 260 | 1.0 | 4.0 | 0.00 | 0.00 | 0.00 | 74 | 1013.4 |
| 20260503055004 | 45 | 293 | 1.0 | 4.0 | 0.00 | 0.00 | 0.00 | 67 | 1013.4 |
| 20260503054505 | 45 | 284 | 1.0 | 3.0 | 0.00 | 0.00 | 0.00 | 67 | 1013.4 |
| 20260503054004 | 46 | 265 | 1.0 | 3.0 | 0.00 | 0.00 | 0.00 | 66 | 1013.5 |
| 20260503053525 | 46 | 261 | 0.0 | 3.0 | 0.00 | 0.00 | 0.00 | 66 | 1013.4 |
| 20260503053004 | 46 | 288 | 0.0 | 3.0 | 0.00 | 0.00 | 0.00 | 65 | 1013.4 |
| 20260503052525 | 46 | 287 | 1.0 | 3.0 | 0.00 | 0.00 | 0.00 | 65 | 1013.4 |
| 20260503052004 | 47 | 284 | 1.0 | 3.0 | 0.00 | 0.00 | 0.00 | 64 | 1013.4 |
| 20260503051504 | 47 | 274 | 0.0 | 2.0 | 0.00 | 0.00 | 0.00 | 64 | 1013.3 |
| 20260503051027 | 47 | 280 | 0.0 | 2.0 | 0.00 | 0.00 | 0.00 | 64 | 1013.4 |
| 20260503050526 | 47 | 283 | 1.0 | 3.0 | 0.00 | 0.00 | 0.00 | 63 | 1013.3 |
| 20260503050025 | 48 | 293 | 1.0 | 4.0 | 0.00 | 0.00 | 0.00 | 63 | 1013.4 |
| 20260503045525 | 48 | 290 | 1.0 | 4.0 | 0.00 | 0.00 | 0.00 | 62 | 1013.4 |
| 20260503045005 | 48 | 277 | 1.0 | 7.0 | 0.00 | 0.00 | 0.00 | 62 | 1013.5 |
| 20260503044525 | 48 | 281 | 1.0 | 7.0 | 0.00 | 0.00 | 0.00 | 61 | 1013.5 |
| 20260503044025 | 48 | 311 | 1.0 | 6.0 | 0.00 | 0.00 | 0.00 | 61 | 1013.5 |
| 20260503043504 | 49 | 323 | 2.0 | 7.0 | 0.00 | 0.00 | 0.00 | 60 | 1013.5 |
| 20260503043005 | 49 | 323 | 2.0 | 7.0 | 0.00 | 0.00 | 0.00 | 59 | 1013.5 |
| 20260503042504 | 49 | 323 | 2.0 | 4.0 | 0.00 | 0.00 | 0.00 | 60 | 1013.6 |
| 20260503042004 | 49 | 321 | 2.0 | 5.0 | 0.00 | 0.00 | 0.00 | 59 | 1013.6 |
| 20260503041505 | 49 | 322 | 2.0 | 6.0 | 0.00 | 0.00 | 0.00 | 59 | 1013.5 |
| 20260503041004 | 50 | 319 | 1.0 | 6.0 | 0.00 | 0.00 | 0.00 | 58 | 1013.5 |
| 20260503040504 | 50 | 315 | 2.0 | 9.0 | 0.00 | 0.00 | 0.00 | 58 | 1013.5 |
| 20260503040005 | 50 | 315 | 4.0 | 14.0 | 0.00 | 0.00 | 0.00 | 57 | 1013.5 |
| 20260503035504 | 50 | 316 | 4.0 | 14.0 | 0.00 | 0.00 | 0.00 | 57 | 1013.4 |
| 20260503035004 | 50 | 324 | 3.0 | 12.0 | 0.00 | 0.00 | 0.00 | 57 | 1013.4 |
| 20260503034525 | 50 | 327 | 2.0 | 5.0 | 0.00 | 0.00 | 0.00 | 57 | 1013.5 |
| 20260503034025 | 50 | 324 | 2.0 | 6.0 | 0.00 | 0.00 | 0.00 | 56 | 1013.4 |
| 20260503033525 | 50 | 311 | 2.0 | 9.0 | 0.00 | 0.00 | 0.00 | 57 | 1013.4 |
| 20260503033004 | 51 | 313 | 2.0 | 9.0 | 0.00 | 0.00 | 0.00 | 56 | 1013.4 |
| 20260503032526 | 51 | 330 | 2.0 | 9.0 | 0.00 | 0.00 | 0.00 | 56 | 1013.4 |
| 20260503032025 | 51 | 327 | 2.0 | 9.0 | 0.00 | 0.00 | 0.00 | 56 | 1013.5 |